Simultaneous Nadir Overpasses (SNOs) Predictions

Prediction of SNOs near equator between AQUA and NPP Satellite Orbit:

Table of predicted SNOs near equator for the next 14.0 days since TLE Epoch: 8/21/2021
Index Date (AQUA) Time (AQUA) AQUA Lat,Lon Date (NPP) Time (NPP) NPP Lat,Lon Distance(km) Time Diff (sec)
1 08/23/2021 07:52:24 4.59, 85.11 08/23/2021 07:42:51 4.52, 84.88 26.73 573
2 08/23/2021 08:40:30 -0.01,-106.26 08/23/2021 08:32:13 0.08,-106.76 56.78 497
3 08/23/2021 09:28:46 -4.54, 62.33 08/23/2021 09:21:44 -4.70, 61.57 86.23 422
4 08/25/2021 23:26:21 -29.94, 27.54 08/25/2021 23:16:21 -30.53, 27.02 81.82 600
5 08/26/2021 00:08:24 2.94,-158.66 08/25/2021 23:59:18 2.84,-158.98 37.39 546
6 08/26/2021 00:56:30 1.64, 9.98 08/26/2021 00:48:40 1.77, 9.39 67.26 470
7 08/26/2021 01:44:46 -6.19, 178.57 08/26/2021 01:38:11 -6.38, 177.72 96.46 395
8 08/28/2021 15:36:08 -5.78, 149.00 08/28/2021 15:26:15 -5.78, 148.84 18.22 593
9 08/28/2021 16:24:24 1.24, -42.41 08/28/2021 16:15:46 1.16, -42.83 47.89 518
10 08/28/2021 17:12:32 3.22, 126.20 08/28/2021 17:05:09 3.39, 125.52 77.84 443
11 08/31/2021 07:52:10 -4.21, -94.78 08/31/2021 07:42:44 -4.16, -95.03 28.68 566
12 08/31/2021 08:40:25 -0.39, 73.82 08/31/2021 08:32:14 -0.52, 73.31 58.52 491
13 08/31/2021 09:28:32 4.92,-117.56 08/31/2021 09:21:37 5.07,-118.34 88.19 415
14 09/02/2021 23:26:23 29.98,-152.48 09/02/2021 23:16:23 30.15,-152.90 45.03 600
15 09/03/2021 00:08:10 -2.52, 21.47 09/02/2021 23:59:11 -2.42, 21.13 39.40 539
16 09/03/2021 00:56:25 -2.08,-169.94 09/03/2021 00:48:42 -2.19,-170.55 69.14 463
17 09/03/2021 01:44:31 6.61, -1.31 09/03/2021 01:38:04 6.81, -2.18 98.39 388
